owner,sensor,date,latitude,longitude,vertical_datum,mass_concentration_of_oxygen_in_sea_water,qcFlag 
SCCF RECON,ioos:station:SCCF:18:1,2019-05-01T04:00:00Z,26.6955,-81.8138,1.15,7.8,11111222 
SCCF RECON,ioos:station:SCCF:18:1,2019-05-01T05:00:00Z,26.6955,-81.8138,1.2,7.92,11111222 
SCCF RECON,ioos:station:SCCF:18:1,2019-05-01T06:00:00Z,26.6955,-81.8138,1.22,7.61,11111222 
SCCF RECON,ioos:station:SCCF:18:1,2019-05-01T07:00:00Z,26.6955,-81.8138,1.22,7.67,11111222 
SCCF RECON,ioos:station:SCCF:18:1,2019-05-01T08:00:00Z,26.6955,-81.8138,1.18,7.51,11111222 
SCCF RECON,ioos:station:SCCF:18:1,2019-05-01T09:00:00Z,26.6955,-81.8138,1.114,7.74,11111222 
SCCF RECON,ioos:station:SCCF:18:1,2019-05-01T10:00:00Z,26.6955,-81.8138,1.059,7.36,11111222 
SCCF RECON,ioos:station:SCCF:18:1,2019-05-01T11:00:00Z,26.6955,-81.8138,1.02,7.62,11111222 
SCCF RECON,ioos:station:SCCF:18:1,2019-05-01T13:00:00Z,26.6955,-81.8138,0.942,7.11,11111222 
SCCF RECON,ioos:station:SCCF:18:1,2019-05-01T14:00:00Z,26.6955,-81.8138,0.92,7.78,11111222 
SCCF RECON,ioos:station:SCCF:18:1,2019-05-01T15:00:00Z,26.6955,-81.8138,0.94,8.08,11111222 
SCCF RECON,ioos:station:SCCF:18:1,2019-05-01T16:00:00Z,26.6955,-81.8138,1.0,7.92,11111222 
SCCF RECON,ioos:station:SCCF:18:1,2019-05-01T17:00:00Z,26.6955,-81.8138,1.07,7.81,11111222 
SCCF RECON,ioos:station:SCCF:18:1,2019-05-01T18:00:00Z,26.6955,-81.8138,1.15,7.92,11111222 
SCCF RECON,ioos:station:SCCF:18:1,2019-05-01T19:00:00Z,26.6955,-81.8138,1.169,7.94,11111222 
SCCF RECON,ioos:station:SCCF:18:1,2019-05-01T20:00:00Z,26.6955,-81.8138,1.165,8.42,11111222 
SCCF RECON,ioos:station:SCCF:18:1,2019-05-01T21:00:00Z,26.6955,-81.8138,1.09,8.41,11111222 
SCCF RECON,ioos:station:SCCF:18:1,2019-05-01T22:00:00Z,26.6955,-81.8138,1.04,8.42,11111222 
SCCF RECON,ioos:station:SCCF:18:1,2019-05-01T23:00:00Z,26.6955,-81.8138,0.991,8.42,11111222 
SCCF RECON,ioos:station:SCCF:18:1,2019-05-02T04:00:00Z,26.6955,-81.8138,0.96,7.7,11111222 
SCCF RECON,ioos:station:SCCF:18:1,2019-05-02T05:00:00Z,26.6955,-81.8138,1.03,7.15,11111222 
SCCF RECON,ioos:station:SCCF:18:1,2019-05-02T06:00:00Z,26.6955,-81.8138,1.07,7.18,11111222 
SCCF RECON,ioos:station:SCCF:18:1,2019-05-02T07:00:00Z,26.6955,-81.8138,1.091,7.15,11111222 
SCCF RECON,ioos:station:SCCF:18:1,2019-05-02T08:00:00Z,26.6955,-81.8138,1.111,7.14,11111222 
SCCF RECON,ioos:station:SCCF:18:1,2019-05-02T09:00:00Z,26.6955,-81.8138,1.1,7.1,11111222 
SCCF RECON,ioos:station:SCCF:18:1,2019-05-02T10:00:00Z,26.6955,-81.8138,1.051,7.33,11111222 
SCCF RECON,ioos:station:SCCF:18:1,2019-05-02T11:00:00Z,26.6955,-81.8138,1.0,7.11,11111222 
SCCF RECON,ioos:station:SCCF:18:1,2019-05-02T12:00:00Z,26.6955,-81.8138,0.97,6.98,11111222 
SCCF RECON,ioos:station:SCCF:18:1,2019-05-02T13:00:00Z,26.6955,-81.8138,0.94,7.3,11111222 
SCCF RECON,ioos:station:SCCF:18:1,2019-05-02T14:00:00Z,26.6955,-81.8138,0.92,7.36,11111222 
SCCF RECON,ioos:station:SCCF:18:1,2019-05-02T15:00:00Z,26.6955,-81.8138,0.97,7.54,11111222 
SCCF RECON,ioos:station:SCCF:18:1,2019-05-02T16:00:00Z,26.6955,-81.8138,1.05,7.34,11111222 
SCCF RECON,ioos:station:SCCF:18:1,2019-05-02T17:00:00Z,26.6955,-81.8138,1.14,7.31,11111222 
SCCF RECON,ioos:station:SCCF:18:1,2019-05-02T18:00:00Z,26.6955,-81.8138,1.199,7.48,11111222 
SCCF RECON,ioos:station:SCCF:18:1,2019-05-02T19:00:00Z,26.6955,-81.8138,1.28,7.64,11111222 
SCCF RECON,ioos:station:SCCF:18:1,2019-05-02T20:00:00Z,26.6955,-81.8138,1.32,7.4,11111222 
SCCF RECON,ioos:station:SCCF:18:1,2019-05-02T21:00:00Z,26.6955,-81.8138,1.32,7.83,11111222 
SCCF RECON,ioos:station:SCCF:18:1,2019-05-02T22:00:00Z,26.6955,-81.8138,1.27,8.11,11111222 
SCCF RECON,ioos:station:SCCF:18:1,2019-05-02T23:00:00Z,26.6955,-81.8138,1.19,7.51,11111222 
SCCF RECON,ioos:station:SCCF:18:1,2019-05-03T04:00:00Z,26.6955,-81.8138,1.05,7.53,11111222 
SCCF RECON,ioos:station:SCCF:18:1,2019-05-03T05:00:00Z,26.6955,-81.8138,1.13,6.96,11111222 
SCCF RECON,ioos:station:SCCF:18:1,2019-05-03T06:00:00Z,26.6955,-81.8138,1.2,6.84,11111222 
SCCF RECON,ioos:station:SCCF:18:1,2019-05-03T07:00:00Z,26.6955,-81.8138,1.24,6.7,11111222 
SCCF RECON,ioos:station:SCCF:18:1,2019-05-03T08:00:00Z,26.6955,-81.8138,1.28,6.52,11111222 
SCCF RECON,ioos:station:SCCF:18:1,2019-05-03T09:00:00Z,26.6955,-81.8138,1.29,6.6,11111222 
SCCF RECON,ioos:station:SCCF:18:1,2019-05-03T10:00:00Z,26.6955,-81.8138,1.253,6.72,11111222 
SCCF RECON,ioos:station:SCCF:18:1,2019-05-03T11:00:00Z,26.6955,-81.8138,1.2,6.75,11111222 
SCCF RECON,ioos:station:SCCF:18:1,2019-05-03T12:00:00Z,26.6955,-81.8138,1.2,6.74,11111222 
SCCF RECON,ioos:station:SCCF:18:1,2019-05-03T13:00:00Z,26.6955,-81.8138,1.15,6.9,11111222 
SCCF RECON,ioos:station:SCCF:18:1,2019-05-03T14:00:00Z,26.6955,-81.8138,1.1,6.48,11111222 
SCCF RECON,ioos:station:SCCF:18:1,2019-05-03T15:00:00Z,26.6955,-81.8138,1.113,6.99,11111222 
SCCF RECON,ioos:station:SCCF:18:1,2019-05-03T16:00:00Z,26.6955,-81.8138,1.22,7.14,11111222 
SCCF RECON,ioos:station:SCCF:18:1,2019-05-03T17:00:00Z,26.6955,-81.8138,1.29,7.36,11111222 
SCCF RECON,ioos:station:SCCF:18:1,2019-05-03T18:00:00Z,26.6955,-81.8138,1.36,7.52,11111222 
SCCF RECON,ioos:station:SCCF:18:1,2019-05-03T19:00:00Z,26.6955,-81.8138,1.4,7.4,11111222 
SCCF RECON,ioos:station:SCCF:18:1,2019-05-03T20:00:00Z,26.6955,-81.8138,1.43,7.69,11111222 
SCCF RECON,ioos:station:SCCF:18:1,2019-05-03T21:00:00Z,26.6955,-81.8138,1.42,6.87,11111222 
SCCF RECON,ioos:station:SCCF:18:1,2019-05-03T22:00:00Z,26.6955,-81.8138,1.36,7.72,11111222 
SCCF RECON,ioos:station:SCCF:18:1,2019-05-03T23:00:00Z,26.6955,-81.8138,1.27,7.53,11111222 
SCCF RECON,ioos:station:SCCF:18:1,2019-05-04T04:00:00Z,26.6955,-81.8138,1.027,7.13,11111222 
SCCF RECON,ioos:station:SCCF:18:1,2019-05-04T05:00:00Z,26.6955,-81.8138,1.06,6.94,11111222 
SCCF RECON,ioos:station:SCCF:18:1,2019-05-04T06:00:00Z,26.6955,-81.8138,1.13,6.43,11111222 
SCCF RECON,ioos:station:SCCF:18:1,2019-05-04T07:00:00Z,26.6955,-81.8138,1.19,6.13,11111222 
SCCF RECON,ioos:station:SCCF:18:1,2019-05-04T08:00:00Z,26.6955,-81.8138,1.231,6.3,11111222 
SCCF RECON,ioos:station:SCCF:18:1,2019-05-04T09:00:00Z,26.6955,-81.8138,1.26,6.14,11111222 
SCCF RECON,ioos:station:SCCF:18:1,2019-05-04T10:00:00Z,26.6955,-81.8138,1.24,6.15,11111222 
SCCF RECON,ioos:station:SCCF:18:1,2019-05-04T11:00:00Z,26.6955,-81.8138,1.181,6.32,11111222 
SCCF RECON,ioos:station:SCCF:18:1,2019-05-04T12:00:00Z,26.6955,-81.8138,1.13,6.35,11111222 
SCCF RECON,ioos:station:SCCF:18:1,2019-05-04T13:00:00Z,26.6955,-81.8138,1.1,6.23,11111222 
SCCF RECON,ioos:station:SCCF:18:1,2019-05-04T14:00:00Z,26.6955,-81.8138,1.07,6.58,11111222 
SCCF RECON,ioos:station:SCCF:18:1,2019-05-04T15:00:00Z,26.6955,-81.8138,1.06,7.07,11111222 
SCCF RECON,ioos:station:SCCF:18:1,2019-05-04T16:00:00Z,26.6955,-81.8138,1.11,7.09,11111222 
SCCF RECON,ioos:station:SCCF:18:1,2019-05-04T17:00:00Z,26.6955,-81.8138,1.2,7.48,11111222 
SCCF RECON,ioos:station:SCCF:18:1,2019-05-04T18:00:00Z,26.6955,-81.8138,1.29,7.57,11111222 
SCCF RECON,ioos:station:SCCF:18:1,2019-05-04T19:00:00Z,26.6955,-81.8138,1.364,7.09,11111222 
SCCF RECON,ioos:station:SCCF:18:1,2019-05-04T20:00:00Z,26.6955,-81.8138,1.42,7.21,11111222 
SCCF RECON,ioos:station:SCCF:18:1,2019-05-04T21:00:00Z,26.6955,-81.8138,1.438,7.39,11111222 
SCCF RECON,ioos:station:SCCF:18:1,2019-05-04T22:00:00Z,26.6955,-81.8138,1.4,7.2,11111222 
SCCF RECON,ioos:station:SCCF:18:1,2019-05-04T23:00:00Z,26.6955,-81.8138,1.32,7.45,11111222 
SCCF RECON,ioos:station:SCCF:18:1,2019-05-05T04:00:00Z,26.6955,-81.8138,1.018,7.65,11111222 
SCCF RECON,ioos:station:SCCF:18:1,2019-05-05T05:00:00Z,26.6955,-81.8138,1.028,7.67,11111222 
SCCF RECON,ioos:station:SCCF:18:1,2019-05-05T06:00:00Z,26.6955,-81.8138,1.09,7.24,11111222 
SCCF RECON,ioos:station:SCCF:18:1,2019-05-05T07:00:00Z,26.6955,-81.8138,1.16,6.77,11111222 
SCCF RECON,ioos:station:SCCF:18:1,2019-05-05T08:00:00Z,26.6955,-81.8138,1.211,6.28,11111222 
SCCF RECON,ioos:station:SCCF:18:1,2019-05-05T09:00:00Z,26.6955,-81.8138,1.259,6.02,11111222 
SCCF RECON,ioos:station:SCCF:18:1,2019-05-05T10:00:00Z,26.6955,-81.8138,1.28,5.95,11111222 
SCCF RECON,ioos:station:SCCF:18:1,2019-05-05T11:00:00Z,26.6955,-81.8138,1.28,6.13,11111222 
SCCF RECON,ioos:station:SCCF:18:1,2019-05-05T12:00:00Z,26.6955,-81.8138,1.231,6.21,11111222 
SCCF RECON,ioos:station:SCCF:18:1,2019-05-05T13:00:00Z,26.6955,-81.8138,1.18,6.69,11111222 
SCCF RECON,ioos:station:SCCF:18:1,2019-05-05T14:00:00Z,26.6955,-81.8138,1.15,6.68,11111222 
SCCF RECON,ioos:station:SCCF:18:1,2019-05-05T15:00:00Z,26.6955,-81.8138,1.15,6.94,11111222 
SCCF RECON,ioos:station:SCCF:18:1,2019-05-05T16:00:00Z,26.6955,-81.8138,1.2,7.16,11111222 
SCCF RECON,ioos:station:SCCF:18:1,2019-05-05T17:00:00Z,26.6955,-81.8138,1.29,6.94,11111222 
SCCF RECON,ioos:station:SCCF:18:1,2019-05-05T18:00:00Z,26.6955,-81.8138,1.37,7.12,11111222 
SCCF RECON,ioos:station:SCCF:18:1,2019-05-05T19:00:00Z,26.6955,-81.8138,1.44,6.87,11111222 
SCCF RECON,ioos:station:SCCF:18:1,2019-05-05T20:00:00Z,26.6955,-81.8138,1.45,6.57,11111222 
SCCF RECON,ioos:station:SCCF:18:1,2019-05-05T21:00:00Z,26.6955,-81.8138,1.47,6.29,11111222 
SCCF RECON,ioos:station:SCCF:18:1,2019-05-05T22:00:00Z,26.6955,-81.8138,1.46,6.54,11111222 
SCCF RECON,ioos:station:SCCF:18:1,2019-05-05T23:00:00Z,26.6955,-81.8138,1.39,7.04,11111222 
SCCF RECON,ioos:station:SCCF:18:1,2019-05-06T04:00:00Z,26.6955,-81.8138,1.07,7.37,11111222 
SCCF RECON,ioos:station:SCCF:18:1,2019-05-06T05:00:00Z,26.6955,-81.8138,1.013,7.39,11111222 
SCCF RECON,ioos:station:SCCF:18:1,2019-05-06T06:00:00Z,26.6955,-81.8138,1.01,7.29,11111222 
SCCF RECON,ioos:station:SCCF:18:1,2019-05-06T07:00:00Z,26.6955,-81.8138,1.07,7.09,11111222 
SCCF RECON,ioos:station:SCCF:18:1,2019-05-06T08:00:00Z,26.6955,-81.8138,1.152,6.66,11111222 
SCCF RECON,ioos:station:SCCF:18:1,2019-05-06T09:00:00Z,26.6955,-81.8138,1.21,6.25,11111222 
SCCF RECON,ioos:station:SCCF:18:1,2019-05-06T10:00:00Z,26.6955,-81.8138,1.26,5.97,11111222 
SCCF RECON,ioos:station:SCCF:18:1,2019-05-06T11:00:00Z,26.6955,-81.8138,1.28,6.11,11111222 
SCCF RECON,ioos:station:SCCF:18:1,2019-05-06T12:00:00Z,26.6955,-81.8138,1.28,6.17,11111222 
SCCF RECON,ioos:station:SCCF:18:1,2019-05-06T13:00:00Z,26.6955,-81.8138,1.211,6.4,11111222 
SCCF RECON,ioos:station:SCCF:18:1,2019-05-06T14:00:00Z,26.6955,-81.8138,1.16,6.59,11111222 
SCCF RECON,ioos:station:SCCF:18:1,2019-05-06T15:00:00Z,26.6955,-81.8138,1.15,6.72,11111222 
SCCF RECON,ioos:station:SCCF:18:1,2019-05-06T16:00:00Z,26.6955,-81.8138,1.19,7.12,11111222 
SCCF RECON,ioos:station:SCCF:18:1,2019-05-06T17:00:00Z,26.6955,-81.8138,1.278,7.28,11111222 
SCCF RECON,ioos:station:SCCF:18:1,2019-05-06T18:00:00Z,26.6955,-81.8138,1.36,7.2,11111222 
SCCF RECON,ioos:station:SCCF:18:1,2019-05-06T19:00:00Z,26.6955,-81.8138,1.42,7.12,11111222 
SCCF RECON,ioos:station:SCCF:18:1,2019-05-06T20:00:00Z,26.6955,-81.8138,1.46,6.93,11111222 
SCCF RECON,ioos:station:SCCF:18:1,2019-05-06T21:00:00Z,26.6955,-81.8138,1.49,6.93,11111222 
SCCF RECON,ioos:station:SCCF:18:1,2019-05-06T22:00:00Z,26.6955,-81.8138,1.48,6.8,11111222 
SCCF RECON,ioos:station:SCCF:18:1,2019-05-06T23:00:00Z,26.6955,-81.8138,1.401,7.2,11111222 
SCCF RECON,ioos:station:SCCF:18:1,2019-05-07T04:00:00Z,26.6955,-81.8138,1.08,7.36,11111222 
SCCF RECON,ioos:station:SCCF:18:1,2019-05-07T05:00:00Z,26.6955,-81.8138,1.02,7.3,11111222 
SCCF RECON,ioos:station:SCCF:18:1,2019-05-07T06:00:00Z,26.6955,-81.8138,0.98,7.2,11111222 
SCCF RECON,ioos:station:SCCF:18:1,2019-05-07T07:00:00Z,26.6955,-81.8138,0.98,7.11,11111222 
SCCF RECON,ioos:station:SCCF:18:1,2019-05-07T08:00:00Z,26.6955,-81.8138,1.057,6.88,11111222 
SCCF RECON,ioos:station:SCCF:18:1,2019-05-07T09:00:00Z,26.6955,-81.8138,1.14,6.14,11111222 
SCCF RECON,ioos:station:SCCF:18:1,2019-05-07T10:00:00Z,26.6955,-81.8138,1.18,5.56,11111222 
SCCF RECON,ioos:station:SCCF:18:1,2019-05-07T11:00:00Z,26.6955,-81.8138,1.2,6.09,11111222 
SCCF RECON,ioos:station:SCCF:18:1,2019-05-07T12:00:00Z,26.6955,-81.8138,1.212,6.16,11111222 
SCCF RECON,ioos:station:SCCF:18:1,2019-05-07T13:00:00Z,26.6955,-81.8138,1.186,6.09,11111222 
SCCF RECON,ioos:station:SCCF:18:1,2019-05-07T14:00:00Z,26.6955,-81.8138,1.139,6.25,11111222 
SCCF RECON,ioos:station:SCCF:18:1,2019-05-07T15:00:00Z,26.6955,-81.8138,1.11,6.74,11111222 
SCCF RECON,ioos:station:SCCF:18:1,2019-05-07T16:00:00Z,26.6955,-81.8138,1.1,7.17,11111222 
SCCF RECON,ioos:station:SCCF:18:1,2019-05-07T17:00:00Z,26.6955,-81.8138,1.13,7.2,11111222 
SCCF RECON,ioos:station:SCCF:18:1,2019-05-07T18:00:00Z,26.6955,-81.8138,1.2,7.22,11111222 
SCCF RECON,ioos:station:SCCF:18:1,2019-05-07T19:00:00Z,26.6955,-81.8138,1.28,8.07,11111222 
SCCF RECON,ioos:station:SCCF:18:1,2019-05-07T20:00:00Z,26.6955,-81.8138,1.34,7.48,11111222 
SCCF RECON,ioos:station:SCCF:18:1,2019-05-07T21:00:00Z,26.6955,-81.8138,1.39,7.8,11111222 
SCCF RECON,ioos:station:SCCF:18:1,2019-05-07T22:00:00Z,26.6955,-81.8138,1.41,7.02,11111222 
SCCF RECON,ioos:station:SCCF:18:1,2019-05-07T23:00:00Z,26.6955,-81.8138,1.39,8.18,11111222 
SCCF RECON,ioos:station:SCCF:18:1,2019-05-08T04:00:00Z,26.6955,-81.8138,1.07,7.77,11111222 
SCCF RECON,ioos:station:SCCF:18:1,2019-05-08T05:00:00Z,26.6955,-81.8138,1.01,7.68,11111222 
SCCF RECON,ioos:station:SCCF:18:1,2019-05-08T06:00:00Z,26.6955,-81.8138,0.95,7.77,11111222 
SCCF RECON,ioos:station:SCCF:18:1,2019-05-08T07:00:00Z,26.6955,-81.8138,0.92,7.66,11111222 
SCCF RECON,ioos:station:SCCF:18:1,2019-05-08T08:00:00Z,26.6955,-81.8138,0.94,7.49,11111222 
SCCF RECON,ioos:station:SCCF:18:1,2019-05-08T09:00:00Z,26.6955,-81.8138,1.01,6.52,11111222 
SCCF RECON,ioos:station:SCCF:18:1,2019-05-08T11:00:00Z,26.6955,-81.8138,1.141,6.29,11111222 
SCCF RECON,ioos:station:SCCF:18:1,2019-05-08T12:00:00Z,26.6955,-81.8138,1.18,6.14,11111222 
SCCF RECON,ioos:station:SCCF:18:1,2019-05-08T13:00:00Z,26.6955,-81.8138,1.2,6.39,11111222 
SCCF RECON,ioos:station:SCCF:18:1,2019-05-08T14:00:00Z,26.6955,-81.8138,1.198,6.54,11111222 
SCCF RECON,ioos:station:SCCF:18:1,2019-05-08T15:00:00Z,26.6955,-81.8138,1.154,7.0,11111222 
SCCF RECON,ioos:station:SCCF:18:1,2019-05-08T16:00:00Z,26.6955,-81.8138,1.12,7.0,11111222 
SCCF RECON,ioos:station:SCCF:18:1,2019-05-08T18:00:00Z,26.6955,-81.8138,1.172,7.4,11111222 
SCCF RECON,ioos:station:SCCF:18:1,2019-05-08T19:00:00Z,26.6955,-81.8138,1.25,7.82,11111222 
SCCF RECON,ioos:station:SCCF:18:1,2019-05-08T20:00:00Z,26.6955,-81.8138,1.32,7.92,11111222 
SCCF RECON,ioos:station:SCCF:18:1,2019-05-08T21:00:00Z,26.6955,-81.8138,1.341,7.88,11111222 
SCCF RECON,ioos:station:SCCF:18:1,2019-05-08T22:00:00Z,26.6955,-81.8138,1.36,7.75,11111222 
SCCF RECON,ioos:station:SCCF:18:1,2019-05-08T23:00:00Z,26.6955,-81.8138,1.38,8.26,11111222 
SCCF RECON,ioos:station:SCCF:18:1,2019-05-09T04:00:00Z,26.6955,-81.8138,1.13,7.66,11111222 
SCCF RECON,ioos:station:SCCF:18:1,2019-05-09T05:00:00Z,26.6955,-81.8138,1.07,7.62,11111222 
SCCF RECON,ioos:station:SCCF:18:1,2019-05-09T06:00:00Z,26.6955,-81.8138,1.01,7.59,11111222 
SCCF RECON,ioos:station:SCCF:18:1,2019-05-09T07:00:00Z,26.6955,-81.8138,0.957,7.59,11111222 
SCCF RECON,ioos:station:SCCF:18:1,2019-05-09T08:00:00Z,26.6955,-81.8138,0.94,7.53,11111222 
SCCF RECON,ioos:station:SCCF:18:1,2019-05-09T09:00:00Z,26.6955,-81.8138,0.97,7.24,11111222 
SCCF RECON,ioos:station:SCCF:18:1,2019-05-09T11:00:00Z,26.6955,-81.8138,1.11,5.95,11111222 
SCCF RECON,ioos:station:SCCF:18:1,2019-05-09T12:00:00Z,26.6955,-81.8138,1.165,6.2,11111222 
SCCF RECON,ioos:station:SCCF:18:1,2019-05-09T13:00:00Z,26.6955,-81.8138,1.2,6.33,11111222 
SCCF RECON,ioos:station:SCCF:18:1,2019-05-09T14:00:00Z,26.6955,-81.8138,1.23,6.43,11111222 
SCCF RECON,ioos:station:SCCF:18:1,2019-05-09T15:00:00Z,26.6955,-81.8138,1.229,7.18,11111222 
SCCF RECON,ioos:station:SCCF:18:1,2019-05-09T16:00:00Z,26.6955,-81.8138,1.207,7.43,11111222 
SCCF RECON,ioos:station:SCCF:18:1,2019-05-09T17:00:00Z,26.6955,-81.8138,1.2,7.76,11111222 
SCCF RECON,ioos:station:SCCF:18:1,2019-05-09T18:00:00Z,26.6955,-81.8138,1.222,7.89,11111222 
SCCF RECON,ioos:station:SCCF:18:1,2019-05-09T19:00:00Z,26.6955,-81.8138,1.28,8.17,11111222 
SCCF RECON,ioos:station:SCCF:18:1,2019-05-09T20:00:00Z,26.6955,-81.8138,1.36,7.95,11111222 
SCCF RECON,ioos:station:SCCF:18:1,2019-05-09T21:00:00Z,26.6955,-81.8138,1.46,7.31,11111222 
SCCF RECON,ioos:station:SCCF:18:1,2019-05-09T22:00:00Z,26.6955,-81.8138,1.5,7.57,11111222 
SCCF RECON,ioos:station:SCCF:18:1,2019-05-09T23:00:00Z,26.6955,-81.8138,1.48,7.56,11111222 
SCCF RECON,ioos:station:SCCF:18:1,2019-05-10T04:00:00Z,26.6955,-81.8138,1.23,7.01,11111222 
SCCF RECON,ioos:station:SCCF:18:1,2019-05-10T05:00:00Z,26.6955,-81.8138,1.16,7.1,11111222 
SCCF RECON,ioos:station:SCCF:18:1,2019-05-10T06:00:00Z,26.6955,-81.8138,1.11,7.2,11111222 
SCCF RECON,ioos:station:SCCF:18:1,2019-05-10T07:00:00Z,26.6955,-81.8138,1.04,6.81,11111222 
SCCF RECON,ioos:station:SCCF:18:1,2019-05-10T08:00:00Z,26.6955,-81.8138,0.98,6.62,11111222 
SCCF RECON,ioos:station:SCCF:18:1,2019-05-10T09:00:00Z,26.6955,-81.8138,0.95,6.49,11111222 
SCCF RECON,ioos:station:SCCF:18:1,2019-05-10T10:00:00Z,26.6955,-81.8138,0.969,6.63,11111222 
SCCF RECON,ioos:station:SCCF:18:1,2019-05-10T11:00:00Z,26.6955,-81.8138,1.016,5.72,11111222 
SCCF RECON,ioos:station:SCCF:18:1,2019-05-10T12:00:00Z,26.6955,-81.8138,1.07,5.3,11111222 
SCCF RECON,ioos:station:SCCF:18:1,2019-05-10T13:00:00Z,26.6955,-81.8138,1.14,6.68,11111222 
SCCF RECON,ioos:station:SCCF:18:1,2019-05-10T14:00:00Z,26.6955,-81.8138,1.179,7.01,11111222 
SCCF RECON,ioos:station:SCCF:18:1,2019-05-10T15:00:00Z,26.6955,-81.8138,1.22,7.28,11111222 
SCCF RECON,ioos:station:SCCF:18:1,2019-05-10T16:00:00Z,26.6955,-81.8138,1.236,7.27,11111222 
SCCF RECON,ioos:station:SCCF:18:1,2019-05-10T17:00:00Z,26.6955,-81.8138,1.26,7.65,11111222 
SCCF RECON,ioos:station:SCCF:18:1,2019-05-10T18:00:00Z,26.6955,-81.8138,1.288,7.83,11111222 
SCCF RECON,ioos:station:SCCF:18:1,2019-05-10T19:00:00Z,26.6955,-81.8138,1.32,8.17,11111222 
SCCF RECON,ioos:station:SCCF:18:1,2019-05-10T20:00:00Z,26.6955,-81.8138,1.36,8.21,11111222 
SCCF RECON,ioos:station:SCCF:18:1,2019-05-10T21:00:00Z,26.6955,-81.8138,1.39,7.85,11111222 
SCCF RECON,ioos:station:SCCF:18:1,2019-05-10T22:00:00Z,26.6955,-81.8138,1.51,7.06,11111222 
SCCF RECON,ioos:station:SCCF:18:1,2019-05-10T23:00:00Z,26.6955,-81.8138,1.548,7.46,11111222 
SCCF RECON,ioos:station:SCCF:18:1,2019-05-11T04:00:00Z,26.6955,-81.8138,1.311,7.63,11111222 
SCCF RECON,ioos:station:SCCF:18:1,2019-05-11T05:00:00Z,26.6955,-81.8138,1.26,7.43,11111222 
SCCF RECON,ioos:station:SCCF:18:1,2019-05-11T06:00:00Z,26.6955,-81.8138,1.19,7.2,11111222 
SCCF RECON,ioos:station:SCCF:18:1,2019-05-11T08:00:00Z,26.6955,-81.8138,1.06,6.78,11111222 
SCCF RECON,ioos:station:SCCF:18:1,2019-05-11T09:00:00Z,26.6955,-81.8138,1.016,6.51,11111222 
SCCF RECON,ioos:station:SCCF:18:1,2019-05-11T10:00:00Z,26.6955,-81.8138,0.99,6.25,11111222 
SCCF RECON,ioos:station:SCCF:18:1,2019-05-11T11:00:00Z,26.6955,-81.8138,0.99,6.27,11111222 
SCCF RECON,ioos:station:SCCF:18:1,2019-05-11T12:00:00Z,26.6955,-81.8138,1.051,6.24,11111222 
SCCF RECON,ioos:station:SCCF:18:1,2019-05-11T13:00:00Z,26.6955,-81.8138,1.13,5.54,11111222 
SCCF RECON,ioos:station:SCCF:18:1,2019-05-13T14:00:00Z,26.6955,-81.8138,1.241,5.37,11111222 
SCCF RECON,ioos:station:SCCF:18:1,2019-05-13T15:00:00Z,26.6955,-81.8138,1.3,5.62,11111222 
SCCF RECON,ioos:station:SCCF:18:1,2019-05-13T16:00:00Z,26.6955,-81.8138,1.359,5.76,11111222 
SCCF RECON,ioos:station:SCCF:18:1,2019-05-13T17:00:00Z,26.6955,-81.8138,1.41,6.23,11111222 
SCCF RECON,ioos:station:SCCF:18:1,2019-05-13T18:00:00Z,26.6955,-81.8138,1.441,6.55,11111222 
SCCF RECON,ioos:station:SCCF:18:1,2019-05-13T19:00:00Z,26.6955,-81.8138,1.46,6.17,11111222 
SCCF RECON,ioos:station:SCCF:18:1,2019-05-13T20:00:00Z,26.6955,-81.8138,1.421,6.27,11111222 
SCCF RECON,ioos:station:SCCF:18:1,2019-05-13T21:00:00Z,26.6955,-81.8138,1.37,7.15,11111222 
SCCF RECON,ioos:station:SCCF:18:1,2019-05-13T22:00:00Z,26.6955,-81.8138,1.31,6.92,11111222 
SCCF RECON,ioos:station:SCCF:18:1,2019-05-13T23:00:00Z,26.6955,-81.8138,1.237,7.26,11111222 
SCCF RECON,ioos:station:SCCF:18:1,2019-05-14T04:00:00Z,26.6955,-81.8138,1.28,6.12,11111222 
SCCF RECON,ioos:station:SCCF:18:1,2019-05-14T06:00:00Z,26.6955,-81.8138,1.361,5.75,11111222 
SCCF RECON,ioos:station:SCCF:18:1,2019-05-14T07:00:00Z,26.6955,-81.8138,1.292,6.14,11111222 
SCCF RECON,ioos:station:SCCF:18:1,2019-05-14T08:00:00Z,26.6955,-81.8138,1.218,6.07,11111222 
SCCF RECON,ioos:station:SCCF:18:1,2019-05-14T09:00:00Z,26.6955,-81.8138,1.158,5.78,11111222 
SCCF RECON,ioos:station:SCCF:18:1,2019-05-14T10:00:00Z,26.6955,-81.8138,1.11,5.66,11111222 
SCCF RECON,ioos:station:SCCF:18:1,2019-05-14T12:00:00Z,26.6955,-81.8138,1.03,5.53,11111222 
SCCF RECON,ioos:station:SCCF:18:1,2019-05-14T13:00:00Z,26.6955,-81.8138,1.031,5.99,11111222 
SCCF RECON,ioos:station:SCCF:18:1,2019-05-14T14:00:00Z,26.6955,-81.8138,1.108,5.54,11111222 
SCCF RECON,ioos:station:SCCF:18:1,2019-05-14T15:00:00Z,26.6955,-81.8138,1.2,5.63,11111222 
SCCF RECON,ioos:station:SCCF:18:1,2019-05-14T16:00:00Z,26.6955,-81.8138,1.264,5.25,11111222 
SCCF RECON,ioos:station:SCCF:18:1,2019-05-14T17:00:00Z,26.6955,-81.8138,1.321,5.5,11111222 
SCCF RECON,ioos:station:SCCF:18:1,2019-05-14T18:00:00Z,26.6955,-81.8138,1.38,5.7,11111222 
SCCF RECON,ioos:station:SCCF:18:1,2019-05-14T19:00:00Z,26.6955,-81.8138,1.398,5.54,11111222 
SCCF RECON,ioos:station:SCCF:18:1,2019-05-14T20:00:00Z,26.6955,-81.8138,1.34,5.55,11111222 
SCCF RECON,ioos:station:SCCF:18:1,2019-05-14T21:00:00Z,26.6955,-81.8138,1.261,6.09,11111222 
SCCF RECON,ioos:station:SCCF:18:1,2019-05-14T22:00:00Z,26.6955,-81.8138,1.2,5.97,11111222 
SCCF RECON,ioos:station:SCCF:18:1,2019-05-14T23:00:00Z,26.6955,-81.8138,1.145,6.61,11111222 
SCCF RECON,ioos:station:SCCF:18:1,2019-05-15T04:00:00Z,26.6955,-81.8138,1.232,5.02,11111222 
SCCF RECON,ioos:station:SCCF:18:1,2019-05-15T05:00:00Z,26.6955,-81.8138,1.25,4.74,11111222 
SCCF RECON,ioos:station:SCCF:18:1,2019-05-15T06:00:00Z,26.6955,-81.8138,1.3,4.81,11111222 
SCCF RECON,ioos:station:SCCF:18:1,2019-05-15T07:00:00Z,26.6955,-81.8138,1.31,4.76,11111222 
SCCF RECON,ioos:station:SCCF:18:1,2019-05-15T08:00:00Z,26.6955,-81.8138,1.26,4.78,11111222 
SCCF RECON,ioos:station:SCCF:18:1,2019-05-15T09:00:00Z,26.6955,-81.8138,1.19,5.21,11111222 
SCCF RECON,ioos:station:SCCF:18:1,2019-05-15T10:00:00Z,26.6955,-81.8138,1.13,5.21,11111222 
SCCF RECON,ioos:station:SCCF:18:1,2019-05-15T11:00:00Z,26.6955,-81.8138,1.09,5.01,11111222 
SCCF RECON,ioos:station:SCCF:18:1,2019-05-15T12:00:00Z,26.6955,-81.8138,1.04,4.97,11111222 
SCCF RECON,ioos:station:SCCF:18:1,2019-05-15T13:00:00Z,26.6955,-81.8138,1.02,5.05,11111222 
SCCF RECON,ioos:station:SCCF:18:1,2019-05-15T14:00:00Z,26.6955,-81.8138,1.03,5.08,11111222 
SCCF RECON,ioos:station:SCCF:18:1,2019-05-15T15:00:00Z,26.6955,-81.8138,1.12,4.63,11111222 
SCCF RECON,ioos:station:SCCF:18:1,2019-05-15T16:00:00Z,26.6955,-81.8138,1.21,4.68,11111222 
SCCF RECON,ioos:station:SCCF:18:1,2019-05-15T17:00:00Z,26.6955,-81.8138,1.279,4.71,11111222 
SCCF RECON,ioos:station:SCCF:18:1,2019-05-15T18:00:00Z,26.6955,-81.8138,1.33,4.6,11111222 
SCCF RECON,ioos:station:SCCF:18:1,2019-05-15T19:00:00Z,26.6955,-81.8138,1.36,4.32,11111222 
SCCF RECON,ioos:station:SCCF:18:1,2019-05-15T20:00:00Z,26.6955,-81.8138,1.36,5.01,11111222 
SCCF RECON,ioos:station:SCCF:18:1,2019-05-15T21:00:00Z,26.6955,-81.8138,1.29,4.89,11111222 
SCCF RECON,ioos:station:SCCF:18:1,2019-05-15T22:00:00Z,26.6955,-81.8138,1.22,5.44,11111222 
SCCF RECON,ioos:station:SCCF:18:1,2019-05-15T23:00:00Z,26.6955,-81.8138,1.168,5.43,11111222 
SCCF RECON,ioos:station:SCCF:18:1,2019-05-16T04:00:00Z,26.6955,-81.8138,1.08,5.43,11111222 
SCCF RECON,ioos:station:SCCF:18:1,2019-05-16T05:00:00Z,26.6955,-81.8138,1.16,4.87,11111222 
SCCF RECON,ioos:station:SCCF:18:1,2019-05-16T06:00:00Z,26.6955,-81.8138,1.22,4.58,11111222 
SCCF RECON,ioos:station:SCCF:18:1,2019-05-16T07:00:00Z,26.6955,-81.8138,1.27,4.41,11111222 
SCCF RECON,ioos:station:SCCF:18:1,2019-05-16T08:00:00Z,26.6955,-81.8138,1.29,4.75,11111222 
SCCF RECON,ioos:station:SCCF:18:1,2019-05-16T09:00:00Z,26.6955,-81.8138,1.279,4.61,11111222 